Hourly Weather Roundup
Issued by NWS Central Illinois

Home | Current Version | Previous Version | Text Only | Print | Product List | Glossary On
Versions: 1 2 3 4 5 6 7 8 9 10 11 12 13 14 15 16 17 18 19 20 21 22 23 24 25 26 27 28 29 30 31 32 33 34 35 36 37 38 39 40 41 42 43 44 45 46 47 48 49 50
000
NZUS43 KILX 280510
HWRILX

AREA WEATHER ROUNDUP
NATIONAL WEATHER SERVICE, LINCOLN IL
1200 AM CDT FRI AUG 28 2015


CITY           SKY/WX    TMP DP  RH WIND       PRES   REMARKS
BLOOMINGTON    CLEAR     60  58  93 E6        30.14S
CHAMPAIGN      CLEAR     62  59  90 NE5       30.13R
DANVILLE       CLEAR     60  58  94 NE3       30.11R
DECATUR        CLEAR     60  55  83 CALM      30.12S
EFFINGHAM      CLEAR     59  57  92 CALM      30.12R
FLORA          CLEAR     58  56  93 CALM      30.10S
GALESBURG      CLEAR     60  57  90 CALM      30.11R
JACKSONVILLE   CLEAR     60  57  90 CALM      30.10S
LACON          CLEAR     62  57  86 E6        30.11S
LAWRENCEVILLE  CLEAR     61  59  93 E3        30.11R
LITCHFIELD     CLEAR     60  57  91 CALM      30.11S
$$


CITY           SKY/WX    TMP DP  RH WIND       PRES   REMARKS
LINCOLN        CLEAR     60  56  88 CALM      30.12S
MACOMB         CLEAR     56  56  97 CALM      30.11S
MATTOON        CLEAR     61  57  87 CALM      30.11R
MT CARMEL AP   CLEAR     61  55  82 CALM      30.11S
OLNEY-NOBLE AP CLEAR     59  57  94 CALM      30.10F
PARIS          CLEAR     59  58  97 CALM      30.12S
PEORIA         CLEAR     65  58  78 E6        30.10F
PONTIAC        CLEAR     58  58  97 E5        30.14S
RANTOUL        CLEAR     66  59  79 NE3       30.14R
ROBINSON       CLEAR     57  56  95 CALM      30.11S
SPRINGFIELD    CLEAR     60  57  89 CALM      30.11
TAYLORVILLE    CLEAR     57  55  94 CALM      30.11S
$$

...REGIONAL REPORTS...


CITY           SKY/WX    TMP DP  RH WIND       PRES   REMARKS
CHICAGO O`HARE PTCLDY    59  54  83 CALM      30.13
KANKAKEE       CLEAR     59  57  92 CALM      30.14S
MOLINE         PTCLDY    63  58  83 E5        30.10S
MOUNT STERLING CLEAR     58  56  96 E3        30.09S
MOUNT VERNON   CLEAR     57  52  82 CALM      30.10S
PITTSFIELD     CLEAR     59  56  91 CALM      30.10S
QUINCY         FAIR      62  58  86 E6        30.09R
ROCKFORD       PTCLDY    59  55  87 SE5       30.14R
$$


CITY           SKY/WX    TMP DP  RH WIND       PRES   REMARKS
BURLINGTON     PTCLDY    63  59  87 SE5       30.09R
CEDAR RAPIDS   PTCLDY    59  59 100 E7        30.07F
DES MOINES     MOCLDY    67  60  78 SE13      30.02F
KIRKSVILLE     PTCLDY    62  58  86 SE7       30.08S
OTTUMWA        PTCLDY    63  60  90 SE9       30.06R
ST LOUIS       PTCLDY    68  57  68 CALM      30.10
$$


CITY           SKY/WX    TMP DP  RH WIND       PRES   REMARKS
TERRE HAUTE    CLEAR     59  56  89 CALM      30.12R
EVANSVILLE     CLEAR     65  60  84 CALM      30.11S
INDIANAPOLIS   PTCLDY    65  57  75 SE8       30.12R
LAFAYETTE      CLEAR     61  57  87 CALM      30.13R
MADISON        CLEAR     64  56  75 S7        30.10F
MILWAUKEE      PTCLDY    60  54  80 SW5       30.14R
$$





USA.gov is the U.S. government's official web portal to all federal, state and local government web resources and services.